LAN423 SCEL-SABE

Flight info

Callsign LAN423
Flight time 1h 24m
Altitude 37000
Route ALBAL7C ALBAL UM424 ASADA ASADA9R
Aircraft A320/M-SDE3FGHIRWY/LB1

Departure

Time 2026-05-03 22:47
Airport Comodoro Arturo Merino Benítez International Airport (SCEL)

Arrival

Time 2026-05-04 00:11
Airport Aeroparque Jorge Newbery (SABE)
Time Latitude Longitude Altitude Speed Heading
2026-05-03 22:09 -33.39919 -70.79708 1565 ft 0 kts 176°
2026-05-03 22:28 -33.39911 -70.79708 1564 ft 4 kts 177°
2026-05-03 22:28 -33.39888 -70.79709 1564 ft 3 kts 176°
2026-05-03 22:28 -33.39870 -70.79715 1564 ft 0 kts 127°
2026-05-03 22:30 -33.39863 -70.79726 1565 ft 2 kts 169°
2026-05-03 22:31 -33.39847 -70.79722 1565 ft 3 kts 230°
2026-05-03 22:31 -33.39838 -70.79705 1565 ft 2 kts 271°
2026-05-03 22:31 -33.39838 -70.79703 1565 ft 0 kts 271°
2026-05-03 22:32 -33.39838 -70.79707 1565 ft 3 kts 272°
2026-05-03 22:33 -33.39838 -70.79762 1565 ft 7 kts 269°
2026-05-03 22:33 -33.39839 -70.79821 1565 ft 7 kts 270°
2026-05-03 22:33 -33.39839 -70.79875 1565 ft 5 kts 269°
2026-05-03 22:33 -33.39841 -70.79917 1565 ft 5 kts 266°
2026-05-03 22:34 -33.39841 -70.79955 1565 ft 1 kts 271°
2026-05-03 22:34 -33.39841 -70.79960 1565 ft 0 kts 266°
2026-05-03 22:35 -33.39828 -70.80015 1566 ft 12 kts 319°
2026-05-03 22:35 -33.39722 -70.80032 1566 ft 19 kts
2026-05-03 22:35 -33.39570 -70.80036 1566 ft 25 kts 351°
2026-05-03 22:36 -33.39380 -70.80047 1566 ft 29 kts 358°
2026-05-03 22:36 -33.39179 -70.80062 1566 ft 29 kts 357°
2026-05-03 22:36 -33.38980 -70.80072 1567 ft 27 kts 356°
2026-05-03 22:36 -33.38803 -70.80082 1567 ft 19 kts 357°
2026-05-03 22:37 -33.38734 -70.80086 1567 ft 9 kts 357°
2026-05-03 22:37 -33.38694 -70.80088 1567 ft 3 kts 357°
2026-05-03 22:37 -33.38669 -70.80090 1567 ft 4 kts 357°
2026-05-03 22:37 -33.38641 -70.80091 1567 ft 4 kts 357°
2026-05-03 22:38 -33.38613 -70.80095 1567 ft 4 kts 353°
2026-05-03 22:38 -33.38583 -70.80099 1567 ft 4 kts 353°
2026-05-03 22:38 -33.38552 -70.80103 1567 ft 5 kts 357°
2026-05-03 22:38 -33.38517 -70.80105 1567 ft 6 kts 356°
2026-05-03 22:39 -33.38469 -70.80107 1567 ft 7 kts 358°
2026-05-03 22:39 -33.38416 -70.80109 1567 ft 8 kts 358°
2026-05-03 22:39 -33.38359 -70.80111 1566 ft 9 kts 358°
2026-05-03 22:39 -33.38298 -70.80113 1566 ft 9 kts 358°
2026-05-03 22:40 -33.38203 -70.80118 1566 ft 18 kts 359°
2026-05-03 22:40 -33.38049 -70.80126 1566 ft 24 kts 358°
2026-05-03 22:40 -33.37880 -70.80135 1566 ft 25 kts 356°
2026-05-03 22:40 -33.37708 -70.80141 1566 ft 25 kts 357°
2026-05-03 22:41 -33.37535 -70.80150 1566 ft 25 kts 357°
2026-05-03 22:41 -33.37364 -70.80160 1567 ft 24 kts 357°
2026-05-03 22:41 -33.37221 -70.80169 1567 ft 14 kts 358°
2026-05-03 22:41 -33.37137 -70.80183 1567 ft 11 kts 320°
2026-05-03 22:42 -33.37108 -70.80235 1569 ft 6 kts 287°
2026-05-03 22:42 -33.37107 -70.80240 1569 ft 0 kts 284°
2026-05-03 22:43 -33.37104 -70.80276 1571 ft 5 kts 275°
2026-05-03 22:44 -33.37107 -70.80310 1573 ft 7 kts 259°
2026-05-03 22:44 -33.37149 -70.80366 1574 ft 9 kts 215°
2026-05-03 22:44 -33.37207 -70.80374 1573 ft 3 kts 175°
2026-05-03 22:45 -33.37208 -70.80374 1573 ft 1 kts 175°
2026-05-03 22:46 -33.37284 -70.80370 1573 ft 38 kts 177°
2026-05-03 22:46 -33.37787 -70.80341 1572 ft 103 kts 177°
2026-05-03 22:46 -33.38667 -70.80294 1575 ft 149 kts 178°
2026-05-03 22:46 -33.39765 -70.80250 1981 ft 159 kts 178°
2026-05-03 22:47 -33.40884 -70.80189 2522 ft 164 kts 177°
2026-05-03 22:47 -33.42082 -70.80111 2899 ft 183 kts 179°
2026-05-03 22:47 -33.43432 -70.80017 3179 ft 207 kts 178°
2026-05-03 22:47 -33.44951 -70.79931 3500 ft 230 kts 179°
2026-05-03 22:48 -33.46635 -70.79850 3920 ft 253 kts 178°
2026-05-03 22:48 -33.48446 -70.79761 4632 ft 265 kts 178°
2026-05-03 22:48 -33.50310 -70.79664 5468 ft 272 kts 178°
2026-05-03 22:48 -33.52197 -70.79563 6294 ft 278 kts 178°
2026-05-03 22:49 -33.54156 -70.79435 7062 ft 286 kts 176°
2026-05-03 22:49 -33.56157 -70.79224 7862 ft 291 kts 175°
2026-05-03 22:49 -33.58163 -70.78970 8652 ft 297 kts 175°
2026-05-03 22:49 -33.60239 -70.78696 9424 ft 303 kts 175°
2026-05-03 22:50 -33.62355 -70.78420 10162 ft 310 kts 175°
2026-05-03 22:50 -33.64574 -70.78137 10464 ft 332 kts 175°
2026-05-03 22:50 -33.66947 -70.77843 10841 ft 348 kts 175°
2026-05-03 22:50 -33.69378 -70.77545 11481 ft 354 kts 176°
2026-05-03 22:51 -33.71851 -70.77245 12195 ft 358 kts 176°
2026-05-03 22:51 -33.74338 -70.76943 12917 ft 362 kts 177°
2026-05-03 22:51 -33.76858 -70.76629 13617 ft 366 kts 175°
2026-05-03 22:51 -33.79354 -70.75887 14243 ft 374 kts 161°
2026-05-03 22:52 -33.81673 -70.74409 14882 ft 381 kts 146°
2026-05-03 22:52 -33.83644 -70.72263 15512 ft 387 kts 131°
2026-05-03 22:52 -33.85136 -70.69549 16112 ft 392 kts 117°
2026-05-03 22:52 -33.86290 -70.66553 16685 ft 397 kts 116°
2026-05-03 22:53 -33.87448 -70.63512 17270 ft 402 kts 116°
2026-05-03 22:53 -33.88604 -70.60474 17862 ft 407 kts 117°
2026-05-03 22:53 -33.89788 -70.57363 18412 ft 412 kts 117°
2026-05-03 22:53 -33.90989 -70.54213 18939 ft 416 kts 118°
2026-05-03 22:54 -33.92202 -70.51036 19496 ft 420 kts 117°
2026-05-03 22:54 -33.93430 -70.47815 19941 ft 427 kts 117°
2026-05-03 22:54 -33.94675 -70.44548 20472 ft 432 kts 117°
2026-05-03 22:54 -33.95934 -70.41234 20984 ft 437 kts 118°
2026-05-03 22:55 -33.97202 -70.37886 21376 ft 442 kts 118°
2026-05-03 22:55 -33.98487 -70.34496 21895 ft 447 kts 118°
2026-05-03 22:55 -33.99770 -70.31110 22433 ft 451 kts 119°
2026-05-03 22:55 -34.01079 -70.27651 22910 ft 456 kts 118°
2026-05-03 22:56 -34.02386 -70.24199 23366 ft 460 kts 119°
2026-05-03 22:56 -34.03734 -70.20631 23832 ft 466 kts 119°
2026-05-03 22:56 -34.05084 -70.17056 24244 ft 472 kts 119°
2026-05-03 22:56 -34.06448 -70.13438 24639 ft 475 kts 120°
2026-05-03 22:57 -34.07821 -70.09795 24991 ft 480 kts 119°
2026-05-03 22:57 -34.09204 -70.06121 25458 ft 482 kts 119°
2026-05-03 22:57 -34.10592 -70.02421 25878 ft 484 kts 120°
2026-05-03 22:57 -34.11979 -69.98705 26232 ft 487 kts 120°
2026-05-03 22:58 -34.13376 -69.94961 26719 ft 490 kts 120°
2026-05-03 22:58 -34.14782 -69.91207 27216 ft 492 kts 120°
2026-05-03 22:58 -34.16198 -69.87428 27653 ft 495 kts 120°
2026-05-03 22:58 -34.17582 -69.83615 28098 ft 497 kts 116°
2026-05-03 22:59 -34.18590 -69.79659 28682 ft 501 kts 107°
2026-05-03 22:59 -34.19210 -69.75498 29078 ft 505 kts 103°
2026-05-03 22:59 -34.19784 -69.71306 29468 ft 507 kts 103°
2026-05-03 22:59 -34.20363 -69.67098 29843 ft 510 kts 103°
2026-05-03 23:00 -34.20943 -69.62859 30149 ft 513 kts 103°
2026-05-03 23:00 -34.21528 -69.58595 30413 ft 515 kts 103°
2026-05-03 23:00 -34.22115 -69.54323 30698 ft 518 kts 103°
2026-05-03 23:00 -34.22706 -69.50028 30968 ft 515 kts 103°
2026-05-03 23:01 -34.23284 -69.45793 31590 ft 508 kts 103°
2026-05-03 23:01 -34.23851 -69.41591 32156 ft 505 kts 103°
2026-05-03 23:01 -34.24414 -69.37409 32448 ft 504 kts 103°
2026-05-03 23:01 -34.24978 -69.33227 32881 ft 504 kts 103°
2026-05-03 23:02 -34.25541 -69.29051 33299 ft 503 kts 103°
2026-05-03 23:02 -34.26101 -69.24882 33712 ft 502 kts 103°
2026-05-03 23:02 -34.26658 -69.20723 34101 ft 501 kts 103°
2026-05-03 23:02 -34.27213 -69.16557 34386 ft 504 kts 103°
2026-05-03 23:03 -34.27776 -69.12351 34513 ft 509 kts 103°
2026-05-03 23:03 -34.28345 -69.08119 34760 ft 511 kts 103°
2026-05-03 23:03 -34.28914 -69.03871 35061 ft 512 kts 103°
2026-05-03 23:03 -34.29479 -68.99624 35353 ft 512 kts 102°
2026-05-03 23:04 -34.30039 -68.95366 35649 ft 512 kts 102°
2026-05-03 23:04 -34.30592 -68.91111 35954 ft 512 kts 102°
2026-05-03 23:04 -34.31141 -68.86856 36251 ft 512 kts 102°
2026-05-03 23:04 -34.31689 -68.82591 36541 ft 512 kts 102°
2026-05-03 23:05 -34.32238 -68.78328 36803 ft 513 kts 102°
2026-05-03 23:05 -34.33339 -68.69787 36894 ft 513 kts 102°
2026-05-03 23:06 -34.34427 -68.61312 36885 ft 513 kts 102°
2026-05-03 23:06 -34.35516 -68.52787 36885 ft 513 kts 102°
2026-05-03 23:07 -34.36599 -68.44245 36887 ft 514 kts 102°
2026-05-03 23:07 -34.37676 -68.35693 36889 ft 514 kts 102°
2026-05-03 23:08 -34.38746 -68.27124 36894 ft 514 kts 102°
2026-05-03 23:08 -34.39812 -68.18558 36898 ft 515 kts 102°
2026-05-03 23:09 -34.40879 -68.09990 36901 ft 515 kts 102°
2026-05-03 23:09 -34.41933 -68.01417 36903 ft 515 kts 102°
2026-05-03 23:10 -34.42978 -67.92845 36899 ft 515 kts 102°
2026-05-03 23:10 -34.44024 -67.84263 36904 ft 514 kts 102°
2026-05-03 23:11 -34.45059 -67.75688 36897 ft 517 kts 102°
2026-05-03 23:11 -34.45908 -67.68437 36889 ft 528 kts 101°
2026-05-03 23:12 -34.46928 -67.59539 36888 ft 538 kts 101°
2026-05-03 23:12 -34.47953 -67.50541 36888 ft 540 kts 101°
2026-05-03 23:13 -34.48992 -67.41524 36889 ft 540 kts 101°
2026-05-03 23:13 -34.50022 -67.32491 36890 ft 540 kts 101°
2026-05-03 23:14 -34.51034 -67.23470 36899 ft 541 kts 101°
2026-05-03 23:14 -34.52038 -67.14426 36900 ft 541 kts 101°
2026-05-03 23:15 -34.53033 -67.05435 36923 ft 541 kts 101°
2026-05-03 23:15 -34.54041 -66.96383 36912 ft 542 kts 101°
2026-05-03 23:16 -34.55042 -66.87319 36914 ft 542 kts 101°
2026-05-03 23:16 -34.56028 -66.78252 36909 ft 542 kts 101°
2026-05-03 23:17 -34.57001 -66.69202 36907 ft 542 kts 101°
2026-05-03 23:17 -34.57971 -66.60126 36910 ft 542 kts 101°
2026-05-03 23:18 -34.58941 -66.51052 36905 ft 542 kts 100°
2026-05-03 23:18 -34.59908 -66.41985 36910 ft 542 kts 100°
2026-05-03 23:19 -34.60863 -66.32915 36951 ft 542 kts 100°
2026-05-03 23:19 -34.61803 -66.23846 36880 ft 541 kts 100°
2026-05-03 23:20 -34.62744 -66.14783 36891 ft 541 kts 100°
2026-05-03 23:20 -34.63683 -66.05713 36908 ft 541 kts 100°
2026-05-03 23:21 -34.64607 -65.96695 36914 ft 542 kts 100°
2026-05-03 23:21 -34.65522 -65.87613 36914 ft 542 kts 99°
2026-05-03 23:22 -34.66882 -65.73928 36919 ft 541 kts 99°
2026-05-03 23:22 -34.67779 -65.64912 36919 ft 541 kts 99°
2026-05-03 23:23 -34.68676 -65.55838 36934 ft 541 kts 99°
2026-05-03 23:23 -34.69565 -65.46772 36916 ft 540 kts 99°
2026-05-03 23:24 -34.70447 -65.37708 36922 ft 540 kts 99°
2026-05-03 23:24 -34.71321 -65.28644 36907 ft 540 kts 99°
2026-05-03 23:25 -34.72191 -65.19582 36923 ft 540 kts 99°
2026-05-03 23:25 -34.73050 -65.10507 36922 ft 540 kts 99°
2026-05-03 23:26 -34.73902 -65.01431 36918 ft 540 kts 99°
2026-05-03 23:26 -34.74747 -64.92349 36909 ft 541 kts 99°
2026-05-03 23:27 -34.75586 -64.83266 36907 ft 541 kts 99°
2026-05-03 23:27 -34.76424 -64.74151 36944 ft 542 kts 99°
2026-05-03 23:28 -34.77250 -64.65038 36928 ft 542 kts 99°
2026-05-03 23:28 -34.78069 -64.55981 36929 ft 542 kts 99°
2026-05-03 23:29 -34.78898 -64.46869 36930 ft 542 kts 99°
2026-05-03 23:29 -34.79729 -64.37744 36931 ft 542 kts 99°
2026-05-03 23:30 -34.80546 -64.28623 36933 ft 542 kts 99°
2026-05-03 23:30 -34.81347 -64.19499 36938 ft 542 kts 99°
2026-05-03 23:31 -34.82157 -64.10363 36946 ft 543 kts 99°
2026-05-03 23:31 -34.82954 -64.01244 36904 ft 541 kts 99°
2026-05-03 23:32 -34.83732 -63.92137 36922 ft 541 kts 99°
2026-05-03 23:32 -34.84508 -63.83079 36940 ft 542 kts 99°
2026-05-03 23:33 -34.85278 -63.73954 36951 ft 542 kts 99°
2026-05-03 23:33 -34.86043 -63.64812 36961 ft 543 kts 99°
2026-05-03 23:34 -34.86802 -63.55673 36965 ft 543 kts 99°
2026-05-03 23:34 -34.87558 -63.46518 36968 ft 542 kts 99°
2026-05-03 23:35 -34.88314 -63.37381 36969 ft 542 kts 98°
2026-05-03 23:35 -34.89063 -63.28250 36983 ft 542 kts 98°
2026-05-03 23:36 -34.89803 -63.19104 36981 ft 542 kts 98°
2026-05-03 23:36 -34.90534 -63.09975 36980 ft 542 kts 98°
2026-05-03 23:37 -34.91260 -63.00848 36984 ft 541 kts 98°
2026-05-03 23:37 -34.91976 -62.91716 36983 ft 541 kts 98°
2026-05-03 23:38 -34.92684 -62.82584 36978 ft 541 kts 98°
2026-05-03 23:38 -34.93385 -62.73453 36987 ft 541 kts 98°
2026-05-03 23:39 -34.94079 -62.64328 36994 ft 541 kts 98°
2026-05-03 23:39 -34.94761 -62.55258 37005 ft 540 kts 98°
2026-05-03 23:40 -34.95434 -62.46140 37001 ft 540 kts 98°
2026-05-03 23:40 -34.96104 -62.37035 37001 ft 539 kts 98°
2026-05-03 23:41 -34.96737 -62.27920 37003 ft 539 kts 97°
2026-05-03 23:41 -34.97108 -62.18782 37001 ft 540 kts 94°
2026-05-03 23:42 -34.97308 -62.09633 37007 ft 540 kts 94°
2026-05-03 23:42 -34.97540 -62.00480 37011 ft 540 kts 95°
2026-05-03 23:43 -34.97834 -61.91337 37012 ft 540 kts 95°
2026-05-03 23:43 -34.98138 -61.82199 36999 ft 538 kts 95°
2026-05-03 23:44 -34.98412 -61.73098 37003 ft 537 kts 95°
2026-05-03 23:44 -34.98668 -61.63980 37009 ft 538 kts 94°
2026-05-03 23:45 -34.98929 -61.54859 37023 ft 538 kts 95°
2026-05-03 23:45 -34.99188 -61.45726 37026 ft 539 kts 94°
2026-05-03 23:46 -34.99418 -61.36644 37027 ft 539 kts 94°
2026-05-03 23:46 -34.99639 -61.27518 37030 ft 538 kts 94°
2026-05-03 23:47 -34.99124 -61.18398 37017 ft 540 kts 86°
2026-05-03 23:47 -34.98756 -61.13870 36630 ft 537 kts 85°
2026-05-03 23:47 -34.98383 -61.09341 36373 ft 537 kts 85°
2026-05-03 23:48 -34.98003 -61.04801 36124 ft 537 kts 85°
2026-05-03 23:48 -34.97621 -61.00305 35864 ft 537 kts 85°
2026-05-03 23:48 -34.97236 -60.95771 35629 ft 536 kts 85°
2026-05-03 23:48 -34.96858 -60.91313 35405 ft 536 kts 85°
2026-05-03 23:49 -34.96471 -60.86793 35158 ft 536 kts 85°
2026-05-03 23:49 -34.96077 -60.82267 34923 ft 536 kts 85°
2026-05-03 23:49 -34.95682 -60.77750 34683 ft 536 kts 85°
2026-05-03 23:49 -34.95289 -60.73233 34448 ft 536 kts 85°
2026-05-03 23:50 -34.94900 -60.68715 34213 ft 535 kts 85°
2026-05-03 23:50 -34.94642 -60.65728 34058 ft 534 kts 85°
2026-05-03 23:50 -34.94119 -60.59707 33702 ft 534 kts 85°
2026-05-03 23:50 -34.93724 -60.55205 33434 ft 535 kts 85°
2026-05-03 23:51 -34.93325 -60.50698 33174 ft 535 kts 85°
2026-05-03 23:51 -34.92924 -60.46192 32920 ft 535 kts 85°
2026-05-03 23:51 -34.92522 -60.41692 32638 ft 535 kts 85°
2026-05-03 23:51 -34.92124 -60.37264 32390 ft 535 kts 85°
2026-05-03 23:52 -34.91720 -60.32770 32141 ft 535 kts 85°
2026-05-03 23:52 -34.91315 -60.28260 31888 ft 535 kts 85°
2026-05-03 23:52 -34.90909 -60.23746 31450 ft 536 kts 85°
2026-05-03 23:52 -34.90501 -60.19240 30859 ft 536 kts 84°
2026-05-03 23:53 -34.90088 -60.14730 30294 ft 536 kts 84°
2026-05-03 23:53 -34.89674 -60.10219 29756 ft 536 kts 84°
2026-05-03 23:53 -34.89262 -60.05771 29127 ft 519 kts 84°
2026-05-03 23:53 -34.88859 -60.01446 28648 ft 509 kts 84°
2026-05-03 23:54 -34.88467 -59.97247 28175 ft 501 kts 84°
2026-05-03 23:54 -34.88077 -59.93072 27708 ft 493 kts 84°
2026-05-03 23:54 -34.87691 -59.88947 27248 ft 486 kts 84°
2026-05-03 23:54 -34.87310 -59.84886 26795 ft 480 kts 83°
2026-05-03 23:55 -34.86932 -59.80876 26352 ft 474 kts 83°
2026-05-03 23:55 -34.86559 -59.76908 25911 ft 469 kts 83°
2026-05-03 23:55 -34.86189 -59.72988 25483 ft 465 kts 83°
2026-05-03 23:55 -34.85819 -59.69098 25062 ft 461 kts 83°
2026-05-03 23:56 -34.85448 -59.65224 24643 ft 458 kts 83°
2026-05-03 23:56 -34.85078 -59.61383 24234 ft 456 kts 83°
2026-05-03 23:56 -34.84709 -59.57560 23824 ft 454 kts 82°
2026-05-03 23:56 -34.84466 -59.55036 23544 ft 452 kts 82°
2026-05-03 23:57 -34.83974 -59.49961 22899 ft 449 kts 82°
2026-05-03 23:57 -34.83606 -59.46193 22430 ft 447 kts 82°
2026-05-03 23:57 -34.83365 -59.43719 22119 ft 445 kts 83°
2026-05-03 23:57 -34.82881 -59.38729 21505 ft 441 kts 83°
2026-05-03 23:58 -34.82643 -59.36281 21211 ft 439 kts 83°
2026-05-03 23:58 -34.82165 -59.31425 20615 ft 434 kts 83°
2026-05-03 23:58 -34.81922 -59.28965 20322 ft 432 kts 83°
2026-05-03 23:58 -34.81446 -59.24192 19749 ft 426 kts 83°
2026-05-03 23:59 -34.81205 -59.21780 19464 ft 423 kts 83°
2026-05-03 23:59 -34.80851 -59.18238 19049 ft 419 kts 83°
2026-05-03 23:59 -34.80502 -59.14737 18631 ft 414 kts 83°
2026-05-03 23:59 -34.80158 -59.11274 18195 ft 410 kts 83°
2026-05-04 00:00 -34.79822 -59.07892 17731 ft 406 kts 83°
2026-05-04 00:00 -34.79484 -59.04504 17272 ft 402 kts 83°
2026-05-04 00:00 -34.79143 -59.01145 16812 ft 398 kts 83°
2026-05-04 00:00 -34.78803 -58.97819 16361 ft 394 kts 83°
2026-05-04 00:01 -34.78467 -58.94528 15923 ft 390 kts 83°
2026-05-04 00:01 -34.78135 -58.91267 15481 ft 387 kts 83°
2026-05-04 00:01 -34.77806 -58.88034 15050 ft 383 kts 83°
2026-05-04 00:01 -34.77480 -58.84833 14626 ft 380 kts 83°
2026-05-04 00:02 -34.77153 -58.81657 14207 ft 377 kts 82°
2026-05-04 00:02 -34.76831 -58.78510 13784 ft 374 kts 82°
2026-05-04 00:02 -34.76499 -58.75388 13317 ft 371 kts 79°
2026-05-04 00:02 -34.75949 -58.72330 12809 ft 369 kts 76°
2026-05-04 00:03 -34.75345 -58.69310 12307 ft 367 kts 75°
2026-05-04 00:03 -34.74720 -58.66317 11822 ft 365 kts 74°
2026-05-04 00:03 -34.74087 -58.63335 11328 ft 363 kts 74°
2026-05-04 00:03 -34.73458 -58.60371 10827 ft 361 kts 74°
2026-05-04 00:04 -34.72840 -58.57430 10324 ft 353 kts 74°
2026-05-04 00:04 -34.72250 -58.54593 9821 ft 339 kts 74°
2026-05-04 00:04 -34.71686 -58.51862 9253 ft 328 kts 74°
2026-05-04 00:04 -34.71138 -58.49219 8726 ft 318 kts 74°
2026-05-04 00:05 -34.70612 -58.46682 8200 ft 313 kts 74°
2026-05-04 00:05 -34.70078 -58.44123 7626 ft 309 kts 73°
2026-05-04 00:05 -34.69556 -58.41615 7047 ft 304 kts 73°
2026-05-04 00:05 -34.69050 -58.39184 6474 ft 299 kts 73°
2026-05-04 00:06 -34.68551 -58.36793 5886 ft 294 kts 73°
2026-05-04 00:06 -34.68050 -58.34399 5305 ft 290 kts 73°
2026-05-04 00:06 -34.67562 -58.32064 4860 ft 280 kts 73°
2026-05-04 00:06 -34.67059 -58.29833 4388 ft 263 kts 64°
2026-05-04 00:07 -34.66015 -58.28228 3897 ft 231 kts 26°
2026-05-04 00:07 -34.64552 -58.27825 3307 ft 211 kts 350°
2026-05-04 00:07 -34.63269 -58.28532 2718 ft 202 kts 319°
2026-05-04 00:07 -34.62458 -58.29849 2339 ft 188 kts 308°
2026-05-04 00:08 -34.61764 -58.31113 2012 ft 173 kts 309°
2026-05-04 00:08 -34.61125 -58.32268 1688 ft 153 kts 310°
2026-05-04 00:08 -34.60572 -58.33273 1473 ft 136 kts 310°
2026-05-04 00:08 -34.60051 -58.34206 1303 ft 131 kts 310°
2026-05-04 00:09 -34.59540 -58.35114 1129 ft 129 kts 310°
2026-05-04 00:09 -34.59034 -58.36013 965 ft 129 kts 309°
2026-05-04 00:09 -34.58533 -58.36912 796 ft 129 kts 309°
2026-05-04 00:09 -34.58030 -58.37808 661 ft 127 kts 309°
2026-05-04 00:10 -34.57526 -58.38699 442 ft 129 kts 306°
2026-05-04 00:10 -34.57030 -58.39592 269 ft 127 kts 306°
2026-05-04 00:10 -34.56537 -58.40490 108 ft 129 kts 306°
2026-05-04 00:10 -34.56037 -58.41383 27 ft 123 kts 305°
2026-05-04 00:11 -34.55705 -58.41972 26 ft 42 kts 303°
2026-05-04 00:11 -34.55562 -58.42228 27 ft 36 kts 304°
2026-05-04 00:11 -34.55433 -58.42463 28 ft 24 kts 302°
2026-05-04 00:11 -34.55365 -58.42455 25 ft 9 kts 93°
2026-05-04 00:12 -34.55405 -58.42319 28 ft 21 kts 122°
2026-05-04 00:12 -34.55496 -58.42170 27 ft 23 kts 128°
2026-05-04 00:12 -34.55598 -58.42003 27 ft 26 kts 123°
2026-05-04 00:12 -34.55705 -58.41810 25 ft 29 kts 124°
2026-05-04 00:13 -34.55779 -58.41647 27 ft 15 kts 114°
2026-05-04 00:13 -34.55732 -58.41551 29 ft 13 kts 60°
2026-05-04 00:13 -34.55693 -58.41490 26 ft 4 kts 17°
2026-05-04 00:13 -34.55682 -58.41487 27 ft 1 kts 13°